Regional Weather Roundup
Issued by NWS

Home | Current Version | Previous Version | Text Only | Print | Product List | Glossary Off
Versions: 1 2 3 4 5 6 7 8 9 10 11 12 13 14 15 16 17 18 19 20 21 22 23 24 25 26 27 28 29 30 31 32 33 34 35 36 37 38 39 40 41 42 43 44 45 46 47 48 49 50

000
ASUS43 KBIS 190802
RWRND

NORTH DAKOTA REGIONAL WEATHER ROUNDUP
NATIONAL WEATHER SERVICE BISMARCK ND
200 AM CST THU JAN 19 2017

NOTE: "FAIR" INDICATES FEW OR NO CLOUDS BELOW 12,000 FEET WITH NO
SIGNIFICANT WEATHER AND/OR OBSTRUCTIONS TO VISIBILITY.


NDZ001>003-009>011-017-190900-
NORTHWEST NORTH DAKOTA

CITY           SKY/WX    TMP DP  RH WIND       PRES   REMARKS
WILLISTON      FAIR      23  20  88 SW6       29.52F WCI  16
MINOT          FAIR      31  24  75 S8        29.51R
MINOT AFB      CLOUDY    32  25  74 NW6       29.50R
$$

NDZ018>021-031>035-040>046-190900-
SOUTHWEST NORTH DAKOTA

CITY           SKY/WX    TMP DP  RH WIND       PRES   REMARKS
BISMARCK       FAIR      14   8  77 E6        29.59R WCI   5
DICKINSON      FAIR      26  18  71 W12       29.51S WCI  16
GARRISON         N/A     23  18  81 W5        29.53S WCI  17
HETTINGER ARPT CLOUDY    14  11  87 CALM      29.56F
$$

NDZ004>008-012>016-024-026-027-054-190900-
NORTHEAST NORTH DAKOTA

CITY           SKY/WX    TMP DP  RH WIND       PRES   REMARKS
GRAND FORKS    CLOUDY    26  19  74 S14       29.60S WCI  14
GRND FRKS AFB  CLOUDY    24  19  79 S13       29.58F WCI  13
DEVILS LAKE    FAIR      31  22  69 S8        29.56R
$$

NDZ022-023-025-028>030-036>039-047>053-190900-
SOUTHEAST NORTH DAKOTA

CITY           SKY/WX    TMP DP  RH WIND       PRES   REMARKS
FARGO          CLOUDY    29  24  82 S12       29.64S WCI  19
JAMESTOWN      FAIR      20  17  88 S7        29.57F WCI  11
$$





USA.gov is the U.S. government's official web portal to all federal, state and local government web resources and services.